Regional Weather Roundup
Issued by NWS

Home | Current Version | Previous Version | Graphics & Text | Print | Product List | Glossary On
Versions: 1 2 3 4 5 6 7 8 9 10 11 12 13 14 15 16 17 18 19 20 21 22 23 24 25 26 27 28 29 30 31 32 33 34 35 36 37 38 39 40 41 42 43 44 45 46 47 48 49 50
000
ASUS43 KMPX 281401
RWRMN
WEATHER ROUNDUP FOR MINNESOTA
NATIONAL WEATHER SERVICE TWIN CITIES/CHANHASSEN MN
800 AM CST FRI NOV 28 2014


NOTE: "FAIR" INDICATES FEW OR NO CLOUDS BELOW 12,000 FEET WITH NO
SIGNIFICANT WEATHER AND/OR OBSTRUCTIONS TO VISIBILITY. N/A MEANS
CURRENT SKY AND/OR WEATHER CONDITIONS ARE NOT AVAILABLE.

MNZ060>063-068>070-281500-
   Twin Cities Metro

CITY           SKY/WX    TMP DP  RH WIND       PRES   REMARKS
TWIN CITIES    CLOUDY    13   8  81 E10       30.01F WCI   0
ST PAUL        CLOUDY    14   8  77 SE9       30.03F WCI   2
CRYSTAL        CLOUDY    15   8  73 SE8       29.99F WCI   4
BLAINE         CLOUDY    16  10  79 E8        30.00F WCI   5
LAKEVILLE      CLEAR      9   5  85 E5        29.99F WCI   0
EDEN PRAIRIE   CLOUDY    14   8  77 SE7       29.98F WCI   4
SOUTH ST PAUL  CLOUDY    15   9  76 SE5       30.02F WCI   8
LAKE ELMO      CLOUDY    16  10  79 SE6       30.02F WCI   7
$$
MNZ001>005-007-008-013>017-022>024-027-028-281500-
   Northwest Minnesota

CITY           SKY/WX    TMP DP  RH WIND       PRES   REMARKS
BEMIDJI        FLURRIES   9   4  82 E7        29.95F WCI  -3
HALLOCK        FLURRIES  12   7  79 E3        30.00F
ROSEAU         CLOUDY     9   3  78 E6        30.00F WCI  -1
WARROAD        CLOUDY     7   1  78 E7        30.01F WCI  -5
THIEF RVR FALL CLOUDY    10   5  79 E8        29.98S WCI  -1
CROOKSTON      FLURRIES  12   7  79 E8        29.97F WCI   1
FOSSTON        CLOUDY     9   3  78 E5        29.97S WCI   0
DETROIT LAKES  CLOUDY    10   5  79 SE9       29.93F WCI  -2
MOORHEAD       CLOUDY    12   9  85 SE3       29.96S
PARK RAPIDS    CLOUDY     9   5  84 S7        29.96R WCI  -2
MAHNOMEN       CLOUDY    10   4  77 SE8       29.95F WCI  -2
$$
MNZ006-009>011-018-025>026-281500-
   North Central Minnesota

CITY           SKY/WX    TMP DP  RH WIND       PRES   REMARKS
BAUDETTE       CLOUDY     6  -1  73 E6        30.00F WCI  -4
FLAG ISLAND    CLOUDY     3  -2  78 SE3       30.02S
INTL FALLS     MOCLDY     5  -1  76 E3        30.03S
WASKISH        FLURRIES   9   7  92 CALM      29.99F
BIG FORK       LGT SNOW   9   3  78 CALM      30.01S
LONGVILLE      FLURRIES   9   5  85 E3        29.97S
GRAND RAPIDS   CLOUDY     7   3  85 SE3       29.98S
CRANE LAKE     CLOUDY     7   0  72 CALM      30.06S
ORR            MIX PCPN   7   1  78 CALM      29.98F
COOK           FLURRIES   7   1  78 E5        30.01F WCI  -2
WALKER         FLURRIES   8   4  84 E5        29.96F WCI   0
$$
MNZ012-019>021-037-281500-
   Northeast Minnesota

CITY           SKY/WX    TMP DP  RH WIND       PRES   REMARKS
DULUTH         LGT SNOW   9   5  84 SE7       30.01F WCI  -2
ELY            FLURRIES   7   0  72 SE5       30.01F WCI  -2
HIBBING        FLURRIES   9   2  73 SE6       30.00F WCI  -1
EVELETH        LGT SNOW  10   5  79 E3        30.02F
DULUTH HARBOR  LGT SNOW  10   7  85 CALM      30.10F
TWO HARBORS    LGT SNOW  12   9  85 CALM      30.04F
SILVER BAY     LGT SNOW  12   7  79 CALM      30.04F
GRAND MARAIS     N/A     16   8  71 NW3       30.12S
G MARAIS ARPRT CLOUDY     7   0  72 CALM      30.02R
$$
MNZ029>031-032-039>041-046>048-054>057-064-281500-
   West Central Minnesota

CITY           SKY/WX    TMP DP  RH WIND       PRES   REMARKS
FERGUS FALLS   MOCLDY    10   1  67 E5        29.98R WCI   2
WHEATON        CLOUDY     9   3  78 SE10      29.96R WCI  -6
MORRIS         PTCLDY    10   5  79 SE12      29.90F WCI  -4
ALEXANDRIA     MOCLDY     9   5  84 SE10      29.92F WCI  -5
ELBOW LAKE     FAIR      10   4  80 SE10      29.92S HAZE    WCI  -4
WADENA         FLURRIES   7   3  85 E6        29.95R WCI  -3
GLENWOOD       CLEAR     10   7  85 E12       29.91F WCI  -4
APPLETON       FAIR      10   7  85 SE12      29.91F WCI  -4
BENSON         PTCLDY     9   5  85 SE7       29.92F WCI  -3
ORTONVILLE     CLOUDY     9   3  78 SE8       29.90F WCI  -4
MADISON        MOCLDY    14   9  79 E9        29.90F WCI   2
WILLMAR        FAIR      10   5  79 E12       29.93F WCI  -4
$$
MNZ033>034-036-042>043-049>051-058-059-281500-
   Central Minnesota

CITY           SKY/WX    TMP DP  RH WIND       PRES   REMARKS
ST CLOUD       CLOUDY    12   6  77 E5        29.98F HAZE    WCI   4
SAUK CENTRE    FLURRIES  10   6  82 E7        29.94F WCI  -1
PAYNESVILLE    CLOUDY     9   6  87 NE6       29.96F WCI  -1
AITKIN         LGT SNOW  10   5  79 E5        29.98S WCI   2
PINE RIVER     FLURRIES   9   5  85 SE6       30.00F WCI  -1
BRAINERD       CLOUDY     9   5  84 SE8       29.98S WCI  -3
STAPLES        FLURRIES   9   3  78 SE5       29.95F WCI   0
LONG PRAIRIE   LGT SNOW   9   5  85 E7        29.94F WCI  -3
LITTLE FALLS   LGT SNOW  10   5  79 E3        30.00S
LITCHFIELD     CLOUDY    12   9  85 E7        29.96F WCI   2
BUFFALO        CLOUDY    13   8  78 E5        29.99F WCI   6
MAPLE LAKE     CLOUDY    14  10  82 E3        29.99F
$$
MNZ037-044-045-052-053-281500-
   East Central Minnesota

CITY           SKY/WX    TMP DP  RH WIND       PRES   REMARKS
PRINCETON      FLURRIES  12   9  85 CALM      29.99S
MORA             N/A    N/A N/A N/A MISG        N/A
CAMBRIDGE      FLURRIES  12   7  79 E3        29.99F
RUSH CITY      CLOUDY    11   8  85 E6        30.02F WCI   2
MOOSE LAKE     LGT SNOW  10   5  79 E3        30.00F
HINCKLEY       FLURRIES  12   9  85 CALM      30.01F
CLOQUET        LGT SNOW   7   3  85 E6        30.00F WCI  -3
MCGREGOR       CLOUDY    10   9  92 SE6       30.00F WCI   1
$$
MNZ071>073-080-081-089-090-097-098-281500-
   Southwest Minnesota

CITY           SKY/WX    TMP DP  RH WIND       PRES   REMARKS
MONTEVIDEO     PTCLDY    10   7  85 SE9       29.93S WCI  -2
GRANITE FALLS  PTCLDY    11   6  81 E7        29.93S WCI   1
CANBY          MOCLDY    12   9  86 E6        29.90F WCI   3
MARSHALL       PTCLDY    12   7  79 SE10      29.87S WCI  -1
REDWOOD FALLS  FAIR      13   7  77 E9        29.91F WCI   1
OLIVIA         PTCLDY    10   5  79 E8        29.93S WCI  -1
PIPESTONE      CLOUDY    18  16  93 SE7       29.80F WCI   8
WINDOM         MOCLDY    12  10  92 SE6       29.87F WCI   3
WORTHINGTON    CLOUDY    14  12  92 SE7       29.85F WCI   4
JACKSON        MOCLDY    16  12  86 SE10      29.88F WCI   3
TRACY          MOCLDY    15  11  85 S6        29.87F WCI   6
SLAYTON        CLOUDY    13  11  92 SE10      29.83F WCI   0
$$
MNZ065>067-074>077-082>085-091>093-281500-
   South Central Minnesota

CITY           SKY/WX    TMP DP  RH WIND       PRES   REMARKS
MANKATO        PTCLDY    12   5  73 SE12      29.94F WCI  -2
NEW ULM        FAIR      10   7  85 SE7       29.92F WCI   0
ST JAMES       PTCLDY    16  10  79 SE9       29.93F WCI   4
FAIRMONT       MOCLDY    16  10  79 SE10      29.91F WCI   3
GLENCOE        CLOUDY    12   8  83 E8        29.96F WCI   0
FARIBAULT      PTCLDY    14   7  73 SE7       29.96F WCI   4
OWATONNA       PTCLDY    16   9  73 SE17G24   29.94F WCI   0
WASECA         PTCLDY    14   5  67 SE14      29.96F WCI  -1
ALBERT LEA     FAIR      14   9  79 S16       29.95F WCI  -2
$$
MNZ078>079-086>088-094>096-281500-
   Southeast Minnesota

CITY           SKY/WX    TMP DP  RH WIND       PRES   REMARKS
ROCHESTER      PTCLDY    14   7  73 S18       29.97F WCI  -3
RED WING       CLOUDY    16  10  79 SE8       30.03F WCI   5
STANTON        PTCLDY    17   8  68 SE5       29.98F WCI   9
DODGE CENTER   PTCLDY    14   9  79 S14       29.95F WCI  -1
WINONA         CLOUDY    18  12  79 SE6       30.08R WCI   9
AUSTIN         FAIR      14   9  79 S9        29.97F WCI   2
PRESTON        CLEAR     13   8  78 S14       30.01S WCI  -2
$$
ABBREVIATIONS USED IN REMARKS
   TC - TEMPERATURES IN CELSIUS
  WCI - WIND CHILL INDEX
   HX - HEAT INDEX
  VSB - VISIBILITY
$$


USA.gov is the U.S. government's official web portal to all federal, state and local government web resources and services.